User: anonymous   Login
Location: Caltech
(34.1382°N, 118.1253°W)
Time: 14:20:08
(UTC-07:00)
Language:

NOSS 3-1 (C) - Orbit

View from above orbital plane
View from above orbital plane
View from above satellite
View from above satellite

Ground track
Ground track

The orbit data is extracted from the following two-line orbital elements,

1 26907U 01040C   17117.06124841 0.00000030  00000-0  36189-4 0    09
2 26907  63.4138 159.4086 0368000 358.8734   1.1266 13.41267683    06
Epoch (UTC): 27 April 2017 01:28:11
Eccentricity: 0.0368000
inclination: 63.4138°
perigee height: 829 km
apogee height: 1380 km
right ascension of ascending node: 159.4086°
argument of perigee: 358.8734°
revolutions per day: 13.41267683
mean anomaly at epoch: 1.1266°
orbit number at epoch: 0

The dashed part of the orbit path shows where the satellite is in the earth's shadow,  

DLR